Flag for Poland Weather past 2 weeks in Bielsko-Biała, Poland

Now
67 °F

Thundershowers. Overcast.


Feels Like: 67 °F
Forecast: 54 / 70 °F
Wind: 2 mph from Northwest

Location: Katowice

Current Time: Jul 8, 2015 at 7:20:07 AM

Latest Report: Jul 8, 2015 at 6:00 AM


Visibility: 13 mi

Pressure: 29.76 "Hg

Humidity: 83%

Dew point: 62 °F

Location of Bielsko-BiałaLocation

Historic Weather in Bielsko-Biała — Graph

°F

Bielsko-Biała temperature yesterday

Maximum temperature yesterday: 88 °F (at 5:00 PM)
Minimum temperature yesterday: 57 °F (at 4:00 AM)
Average temperature yesterday: 76 °F

Past Weeks' High & Low Weather Summary

 TemperatureHumidityPressure
High92 °F (Jul 5, 3:00 PM)98% (Jul 1, 7:00 AM)30.37 "Hg (Jul 1, 7:00 AM)
Low45 °F (Jun 25, 4:00 AM)23% (Jul 5, 4:00 PM)29.69 "Hg (Jul 8, 3:00 AM)
Average66 °F64%30.12 "Hg
* Reported Jun 23 4:00 AM — Jul 8 4:00 AM, Bielsko-Biała, Weather by CustomWeather, © 2015

Note: Actual official high and low records may vary slightly from our data, if they occured in-between our weather recording intervals... More about our weather records

Advertising

Bielsko-Biała weather history for previous 24 hours

 ConditionsComfort  
Time TempWeatherWind HumidityBarometerVisibility
4:00 AM
Wed, Jul 8
78 °FPassing clouds.3 mph60%29.71 "Hg12 mi
3:00 AM75 °FPassing clouds.3 mph64%29.69 "Hg12 mi
2:00 AM73 °FPassing clouds.1 mph61%29.70 "Hg12 mi
1:00 AM74 °FClear.2 mph57%29.71 "Hg19 mi
12:00 AM75 °FClear.3 mph55%29.75 "Hg12 mi
11:00 PM
Tue, Jul 7
76 °FClear.2 mph54%29.78 "Hg19 mi
10:00 PM77 °FPassing clouds.3 mph52%29.80 "Hg19 mi
9:00 PM79 °FPassing clouds.3 mph49%29.81 "Hg19 mi
8:00 PM82 °FPassing clouds.2 mph48%29.83 "Hg12 mi
7:00 PM87 °FPassing clouds.2 mph32%29.84 "Hg19 mi
6:00 PM88 °FPassing clouds.2 mph28%29.86 "Hg19 mi
5:00 PM88 °FPassing clouds.3 mph27%29.88 "Hg19 mi
4:00 PM87 °FPassing clouds.2 mph29%29.90 "Hg19 mi
3:00 PM87 °FSunny.3 mph30%29.93 "Hg19 mi
2:00 PM84 °FSunny.2 mph30%29.96 "Hg19 mi
1:00 PM84 °FPassing clouds.2 mph31%29.98 "Hg19 mi
12:00 PM81 °FPassing clouds.3 mph35%30.01 "Hg19 mi
11:00 AM80 °FPassing clouds.2 mph40%30.02 "Hg19 mi
10:00 AM77 °FPassing clouds.2 mph49%30.04 "Hg19 mi
9:00 AM74 °FSunny.3 mph56%30.06 "Hg19 mi
8:00 AM72 °FSunny.2 mph59%30.08 "Hg12 mi
7:00 AM67 °FSunny.1 mph84%30.09 "Hg9 mi
Weather by CustomWeather, © 2015

See weather overviewHow to use our weather pages